Hourly Data Report for October 13, 2016

All times are specified in Local Standard Time (LST). Add 1 hour to adjust for Daylight Saving Time where and when it is observed.

EUREKA CLIMATE
NUNAVUT

79°59'21.000" N
85°56'02.000" W
10.00 m
2401199
71613
NEK

Download Data

Hourly Data (October 2016)
Hourly Data Report for October 13, 2016
Temp Definition
°C
Dew Point Temp Definition
°C
Rel Hum Definition
%
Wind Dir Definition
10's deg

Wind Spd Definition
km/h
Visibility Definition
km
Stn Press Definition
kPa
Hmdx Definition


Wind Chill Definition


Weather Definition


TIME
00:00 -13.7 -14.6 92 13 2   101.56   -15 LegendNANA
01:00 -13.5 -14.5 92 13 4   101.57   -16 LegendNANA
02:00 -13.5 -14.5 92 14 3   101.60   -16 LegendNANA
03:00 -14.1 -15.1 92 13 6   101.64   -18 LegendNANA
04:00 -14.8 -15.9 92 12 5   101.67   -18 LegendNANA
05:00 -14.8 -15.9 91 12 3   101.69   -17 LegendNANA
06:00 -14.9 -16.0 91 11 5   101.70   -18 LegendNANA
07:00 -15.3 -16.4 91 12 4   101.70   -18 LegendNANA
08:00 -15.6 -16.7 91 12 2   101.70   -17 LegendNANA
09:00 -16.6 -17.9 90 12 2   101.71   -18 LegendNANA
10:00 -16.7 -18.0 90 11 1   101.69   -17 LegendNANA
11:00 -17.0 -18.3 90 11 2   101.68   -19 LegendNANA
12:00 -17.8 -19.1 89 11 1   101.65   -19 LegendNANA
13:00 -17.9 -19.3 89 13 1   101.64   -19 LegendNANA
14:00 -19.4 -21.0 87 12 1   101.61   -20 LegendNANA
15:00 -20.7 -22.4 86 1 1   101.58   -22 LegendNANA
16:00 -22.7 -24.6 84 3 5   101.54   -27 LegendNANA
17:00 -24.1 -26.2 83 4 5   101.50   -29 LegendNANA
18:00 -23.0 -25.0 84 8 3   101.47   -26 LegendNANA
19:00 -22.4 -24.3 85 9 3   101.45   -25 LegendNANA
20:00 -22.3 -24.2 85 7 1   101.40   -23 LegendNANA
21:00 -22.4 -24.2 85 11 3   101.37   -25 LegendNANA
22:00 -24.4 -26.5 83 8 1   101.38   -25 LegendNANA
23:00 -25.5 -27.7 82 11 1   101.39   -27 LegendNANA

Notes on Data Quality.

Legend

  • E = Estimated
  • M = Missing
  • NA = Not Available
  • ‡ = Partner data that is not subject to review by the National Climate Archives
Date modified: